Year,Month,Day,Hour,Minute,Value (Times are PST for barometer in hPa)
2012,01,22,00,00,1009.38
2012,01,22,00,01,1009.38
2012,01,22,00,02,1009.38
2012,01,22,00,03,1009.38
2012,01,22,00,04,1009.38
2012,01,22,00,05,1009.38
2012,01,22,00,06,1009.38
2012,01,22,00,07,1009.42
2012,01,22,00,08,1009.45
2012,01,22,00,09,1009.42
2012,01,22,00,10,1009.45
2012,01,22,00,11,1009.42
2012,01,22,00,12,1009.45
2012,01,22,00,13,1009.45
2012,01,22,00,14,1009.45
2012,01,22,00,15,1009.48
2012,01,22,00,16,1009.45
2012,01,22,00,17,1009.45
2012,01,22,00,18,1009.45
2012,01,22,00,19,1009.45
2012,01,22,00,20,1009.45
2012,01,22,00,21,1009.55
2012,01,22,00,22,1009.52
2012,01,22,00,23,1009.48
2012,01,22,00,24,1009.52
2012,01,22,00,25,1009.52
2012,01,22,00,26,1009.55
2012,01,22,00,27,1009.55
2012,01,22,00,28,1009.58
2012,01,22,00,29,1009.55
2012,01,22,00,30,1009.52
2012,01,22,00,31,1009.55
2012,01,22,00,32,1009.55
2012,01,22,00,33,1009.55
2012,01,22,00,34,1009.48
2012,01,22,00,35,1009.52
2012,01,22,00,36,1009.48
2012,01,22,00,37,1009.45
2012,01,22,00,38,1009.48
2012,01,22,00,39,1009.52
2012,01,22,00,40,1009.48
2012,01,22,00,41,1009.45
2012,01,22,00,42,1009.48
2012,01,22,00,43,1009.48
2012,01,22,00,44,1009.42
2012,01,22,00,45,1009.42
2012,01,22,00,46,1009.45
2012,01,22,00,47,1009.38
2012,01,22,00,48,1009.42
2012,01,22,00,49,1009.42
2012,01,22,00,50,1009.45
2012,01,22,00,51,1009.35
2012,01,22,00,52,1009.42
2012,01,22,00,53,1009.38
2012,01,22,00,54,1009.35
2012,01,22,00,55,1009.35
2012,01,22,00,56,1009.31
2012,01,22,00,57,1009.31
2012,01,22,00,58,1009.28
2012,01,22,00,59,1009.31
2012,01,22,01,00,1009.28
2012,01,22,01,01,1009.25
2012,01,22,01,02,1009.28
2012,01,22,01,03,1009.31
2012,01,22,01,04,1009.31
2012,01,22,01,05,1009.31
2012,01,22,01,06,1009.31
2012,01,22,01,07,1009.35
2012,01,22,01,08,1009.28
2012,01,22,01,09,1009.25
2012,01,22,01,10,1009.31
2012,01,22,01,11,1009.28
2012,01,22,01,12,1009.28
2012,01,22,01,13,1009.21
2012,01,22,01,14,1009.21
2012,01,22,01,15,1009.21
2012,01,22,01,16,1009.18
2012,01,22,01,17,1009.18
2012,01,22,01,18,1009.11
2012,01,22,01,19,1009.14
2012,01,22,01,20,1009.08
2012,01,22,01,21,1009.04
2012,01,22,01,22,1009.04
2012,01,22,01,23,1009.04
2012,01,22,01,24,1009.01
2012,01,22,01,25,1008.94
2012,01,22,01,26,1008.91
2012,01,22,01,27,1008.84
2012,01,22,01,28,1008.87
2012,01,22,01,29,1008.84
2012,01,22,01,30,1008.84
2012,01,22,01,31,1008.77
2012,01,22,01,32,1008.81
2012,01,22,01,33,1008.84
2012,01,22,01,34,1008.84
2012,01,22,01,35,1008.81
2012,01,22,01,36,1008.81
2012,01,22,01,37,1008.70
2012,01,22,01,38,1008.74
2012,01,22,01,39,1008.67
2012,01,22,01,40,1008.67
2012,01,22,01,41,1008.57
2012,01,22,01,42,1008.57
2012,01,22,01,43,1008.53
2012,01,22,01,44,1008.47
2012,01,22,01,45,1008.43
2012,01,22,01,46,1008.33
2012,01,22,01,47,1008.40
2012,01,22,01,48,1008.27
2012,01,22,01,49,1008.26
2012,01,22,01,50,1008.26
2012,01,22,01,51,1008.23
2012,01,22,01,52,1008.20
2012,01,22,01,53,1008.16
2012,01,22,01,54,1008.13
2012,01,22,01,55,1008.13
2012,01,22,01,56,1008.09
2012,01,22,01,57,1008.09
2012,01,22,01,58,1008.06
2012,01,22,01,59,1008.03
2012,01,22,02,00,1008.03
2012,01,22,02,01,1008.03
2012,01,22,02,02,1007.96
2012,01,22,02,03,1007.93
2012,01,22,02,04,1007.99
2012,01,22,02,05,1007.99
2012,01,22,02,06,1008.03
2012,01,22,02,07,1008.03
2012,01,22,02,08,1008.03
2012,01,22,02,09,1008.03
2012,01,22,02,10,1007.93
2012,01,22,02,11,1007.89
2012,01,22,02,12,1007.79
2012,01,22,02,13,1007.76
2012,01,22,02,14,1007.76
2012,01,22,02,15,1007.76
2012,01,22,02,16,1007.76
2012,01,22,02,17,1007.69
2012,01,22,02,18,1007.79
2012,01,22,02,19,1007.82
2012,01,22,02,20,1007.76
2012,01,22,02,21,1007.72
2012,01,22,02,22,1007.72
2012,01,22,02,23,1007.65
2012,01,22,02,24,1007.69
2012,01,22,02,25,1007.65
2012,01,22,02,26,1007.69
2012,01,22,02,27,1007.65
2012,01,22,02,28,1007.65
2012,01,22,02,29,1007.69
2012,01,22,02,30,1007.72
2012,01,22,02,31,1007.69
2012,01,22,02,32,1007.65
2012,01,22,02,33,1007.62
2012,01,22,02,34,1007.59
2012,01,22,02,35,1007.62
2012,01,22,02,36,1007.59
2012,01,22,02,37,1007.55
2012,01,22,02,38,1007.59
2012,01,22,02,39,1007.62
2012,01,22,02,40,1007.65
2012,01,22,02,41,1007.69
2012,01,22,02,42,1007.72
2012,01,22,02,43,1007.72
2012,01,22,02,44,1007.76
2012,01,22,02,45,1007.72
2012,01,22,02,46,1007.79
2012,01,22,02,47,1007.79
2012,01,22,02,48,1007.79
2012,01,22,02,49,1007.72
2012,01,22,02,50,1007.72
2012,01,22,02,51,1007.65
2012,01,22,02,52,1007.65
2012,01,22,02,53,1007.59
2012,01,22,02,54,1007.62
2012,01,22,02,55,1007.62
2012,01,22,02,56,1007.59
2012,01,22,02,57,1007.65
2012,01,22,02,58,1007.62
2012,01,22,02,59,1007.62
2012,01,22,03,00,1007.65
2012,01,22,03,01,1007.62
2012,01,22,03,02,1007.59
2012,01,22,03,03,1007.59
2012,01,22,03,04,1007.59
2012,01,22,03,05,1007.59
2012,01,22,03,06,1007.59
2012,01,22,03,07,1007.62
2012,01,22,03,08,1007.59
2012,01,22,03,09,1007.59
2012,01,22,03,10,1007.52
2012,01,22,03,11,1007.55
2012,01,22,03,12,1007.48
2012,01,22,03,13,1007.48
2012,01,22,03,14,1007.48
2012,01,22,03,15,1007.45
2012,01,22,03,16,1007.42
2012,01,22,03,17,1007.42
2012,01,22,03,18,1007.32
2012,01,22,03,19,1007.32
2012,01,22,03,20,1007.28
2012,01,22,03,21,1007.32
2012,01,22,03,22,1007.25
2012,01,22,03,23,1007.18
2012,01,22,03,24,1007.18
2012,01,22,03,25,1007.15
2012,01,22,03,26,1007.08
2012,01,22,03,27,1007.04
2012,01,22,03,28,1007.01
2012,01,22,03,29,1006.98
2012,01,22,03,30,1006.98
2012,01,22,03,31,1006.94
2012,01,22,03,32,1006.94
2012,01,22,03,33,1006.94
2012,01,22,03,34,1006.91
2012,01,22,03,35,1006.88
2012,01,22,03,36,1006.84
2012,01,22,03,37,1006.88
2012,01,22,03,38,1006.81
2012,01,22,03,39,1006.81
2012,01,22,03,40,1006.77
2012,01,22,03,41,1006.74
2012,01,22,03,42,1006.71
2012,01,22,03,43,1006.60
2012,01,22,03,44,1006.67
2012,01,22,03,45,1006.54
2012,01,22,03,46,1006.57
2012,01,22,03,47,1006.47
2012,01,22,03,48,1006.47
2012,01,22,03,49,1006.40
2012,01,22,03,50,1006.44
2012,01,22,03,51,1006.44
2012,01,22,03,52,1006.44
2012,01,22,03,53,1006.44
2012,01,22,03,54,1006.37
2012,01,22,03,55,1006.33
2012,01,22,03,56,1006.37
2012,01,22,03,57,1006.37
2012,01,22,03,58,1006.37
2012,01,22,03,59,1006.33
2012,01,22,04,00,1006.37
2012,01,22,04,01,1006.37
2012,01,22,04,02,1006.23
2012,01,22,04,03,1006.20
2012,01,22,04,04,1006.23
2012,01,22,04,05,1006.27
2012,01,22,04,06,1006.23
2012,01,22,04,07,1006.16
2012,01,22,04,08,1006.13
2012,01,22,04,09,1006.10
2012,01,22,04,10,1006.06
2012,01,22,04,11,1006.06
2012,01,22,04,12,1006.03
2012,01,22,04,13,1005.96
2012,01,22,04,14,1005.93
2012,01,22,04,15,1005.99
2012,01,22,04,16,1005.89
2012,01,22,04,17,1005.83
2012,01,22,04,18,1005.83
2012,01,22,04,19,1005.83
2012,01,22,04,20,1005.79
2012,01,22,04,21,1005.79
2012,01,22,04,22,1005.76
2012,01,22,04,23,1005.83
2012,01,22,04,24,1005.79
2012,01,22,04,25,1005.76
2012,01,22,04,26,1005.83
2012,01,22,04,27,1005.76
2012,01,22,04,28,1005.72
2012,01,22,04,29,1005.69
2012,01,22,04,30,1005.72
2012,01,22,04,31,1005.66
2012,01,22,04,32,1005.59
2012,01,22,04,33,1005.59
2012,01,22,04,34,1005.55
2012,01,22,04,35,1005.49
2012,01,22,04,36,1005.49
2012,01,22,04,37,1005.42
2012,01,22,04,38,1005.39
2012,01,22,04,39,1005.39
2012,01,22,04,40,1005.28
2012,01,22,04,41,1005.28
2012,01,22,04,42,1005.25
2012,01,22,04,43,1005.22
2012,01,22,04,44,1005.22
2012,01,22,04,45,1005.22
2012,01,22,04,46,1005.22
2012,01,22,04,47,1005.22
2012,01,22,04,48,1005.22
2012,01,22,04,49,1005.18
2012,01,22,04,50,1005.18
2012,01,22,04,51,1005.22
2012,01,22,04,52,1005.15
2012,01,22,04,53,1005.18
2012,01,22,04,54,1005.15
2012,01,22,04,55,1005.11
2012,01,22,04,56,1005.11
2012,01,22,04,57,1005.11
2012,01,22,04,58,1005.11
2012,01,22,04,59,1005.11
2012,01,22,05,00,1005.08
2012,01,22,05,01,1005.05
2012,01,22,05,02,1005.01
2012,01,22,05,03,1004.95
2012,01,22,05,04,1004.98
2012,01,22,05,05,1004.98
2012,01,22,05,06,1004.91
2012,01,22,05,07,1004.88
2012,01,22,05,08,1004.88
2012,01,22,05,09,1004.88
2012,01,22,05,10,1004.84
2012,01,22,05,11,1004.81
2012,01,22,05,12,1004.78
2012,01,22,05,13,1004.71
2012,01,22,05,14,1004.74
2012,01,22,05,15,1004.67
2012,01,22,05,16,1004.71
2012,01,22,05,17,1004.64
2012,01,22,05,18,1004.57
2012,01,22,05,19,1004.54
2012,01,22,05,20,1004.50
2012,01,22,05,21,1004.50
2012,01,22,05,22,1004.50
2012,01,22,05,23,1004.40
2012,01,22,05,24,1004.40
2012,01,22,05,25,1004.40
2012,01,22,05,26,1004.44
2012,01,22,05,27,1004.40
2012,01,22,05,28,1004.40
2012,01,22,05,29,1004.44
2012,01,22,05,30,1004.27
2012,01,22,05,31,1004.30
2012,01,22,05,32,1004.23
2012,01,22,05,33,1004.23
2012,01,22,05,34,1004.23
2012,01,22,05,35,1004.20
2012,01,22,05,36,1004.17
2012,01,22,05,37,1004.20
2012,01,22,05,38,1004.17
2012,01,22,05,39,1004.17
2012,01,22,05,40,1004.17
2012,01,22,05,41,1004.10
2012,01,22,05,42,1004.17
2012,01,22,05,43,1004.10
2012,01,22,05,44,1004.10
2012,01,22,05,45,1004.03
2012,01,22,05,46,1004.06
2012,01,22,05,47,1004.10
2012,01,22,05,48,1004.03
2012,01,22,05,49,1004.06
2012,01,22,05,50,1004.06
2012,01,22,05,51,1004.10
2012,01,22,05,52,1004.06
2012,01,22,05,53,1004.03
2012,01,22,05,54,1004.06
2012,01,22,05,55,1004.03
2012,01,22,05,56,1003.93
2012,01,22,05,57,1003.93
2012,01,22,05,58,1003.93
2012,01,22,05,59,1003.90
2012,01,22,06,00,1003.86
2012,01,22,06,01,1003.83
2012,01,22,06,02,1003.86
2012,01,22,06,03,1003.83
2012,01,22,06,04,1003.83
2012,01,22,06,05,1003.76
2012,01,22,06,06,1003.73
2012,01,22,06,07,1003.60
2012,01,22,06,08,1003.56
2012,01,22,06,09,1003.59
2012,01,22,06,10,1003.56
2012,01,22,06,11,1003.59
2012,01,22,06,12,1003.56
2012,01,22,06,13,1003.46
2012,01,22,06,14,1003.39
2012,01,22,06,15,1003.39
2012,01,22,06,16,1003.46
2012,01,22,06,17,1003.39
2012,01,22,06,18,1003.32
2012,01,22,06,19,1003.22
2012,01,22,06,20,1003.18
2012,01,22,06,21,1003.22
2012,01,22,06,22,1003.22
2012,01,22,06,23,1003.22
2012,01,22,06,24,1003.18
2012,01,22,06,25,1003.12
2012,01,22,06,26,1003.08
2012,01,22,06,27,1003.05
2012,01,22,06,28,1003.01
2012,01,22,06,29,1003.01
2012,01,22,06,30,1002.98
2012,01,22,06,31,1002.95
2012,01,22,06,32,1002.91
2012,01,22,06,33,1002.88
2012,01,22,06,34,1002.81
2012,01,22,06,35,1002.81
2012,01,22,06,36,1002.78
2012,01,22,06,37,1002.74
2012,01,22,06,38,1002.71
2012,01,22,06,39,1002.71
2012,01,22,06,40,1002.64
2012,01,22,06,41,1002.57
2012,01,22,06,42,1002.51
2012,01,22,06,43,1002.51
2012,01,22,06,44,1002.51
2012,01,22,06,45,1002.44
2012,01,22,06,46,1002.41
2012,01,22,06,47,1002.37
2012,01,22,06,48,1002.34
2012,01,22,06,49,1002.30
2012,01,22,06,50,1002.20
2012,01,22,06,51,1002.27
2012,01,22,06,52,1002.17
2012,01,22,06,53,1002.20
2012,01,22,06,54,1002.10
2012,01,22,06,55,1002.10
2012,01,22,06,56,1002.13
2012,01,22,06,57,1002.10
2012,01,22,06,58,1002.07
2012,01,22,06,59,1002.07
2012,01,22,07,00,1002.03
2012,01,22,07,01,1002.00
2012,01,22,07,02,1002.00
2012,01,22,07,03,1001.97
2012,01,22,07,04,1001.90
2012,01,22,07,05,1001.90
2012,01,22,07,06,1001.83
2012,01,22,07,07,1001.83
2012,01,22,07,08,1001.83
2012,01,22,07,09,1001.83
2012,01,22,07,10,1001.73
2012,01,22,07,11,1001.83
2012,01,22,07,12,1001.80
2012,01,22,07,13,1001.76
2012,01,22,07,14,1001.76
2012,01,22,07,15,1001.76
2012,01,22,07,16,1001.59
2012,01,22,07,17,1001.63
2012,01,22,07,18,1001.59
2012,01,22,07,19,1001.56
2012,01,22,07,20,1001.52
2012,01,22,07,21,1001.52
2012,01,22,07,22,1001.52
2012,01,22,07,23,1001.49
2012,01,22,07,24,1001.46
2012,01,22,07,25,1001.46
2012,01,22,07,26,1001.39
2012,01,22,07,27,1001.32
2012,01,22,07,28,1001.29
2012,01,22,07,29,1001.29
2012,01,22,07,30,1001.29
2012,01,22,07,31,1001.32
2012,01,22,07,32,1001.22
2012,01,22,07,33,1001.22
2012,01,22,07,34,1001.22
2012,01,22,07,35,1001.22
2012,01,22,07,36,1001.15
2012,01,22,07,37,1001.15
2012,01,22,07,38,1001.12
2012,01,22,07,39,1001.05
2012,01,22,07,40,1001.02
2012,01,22,07,41,1001.05
2012,01,22,07,42,1000.92
2012,01,22,07,43,1000.98
2012,01,22,07,44,1000.95
2012,01,22,07,45,1000.92
2012,01,22,07,46,1000.88
2012,01,22,07,47,1000.85
2012,01,22,07,48,1000.85
2012,01,22,07,49,1000.85
2012,01,22,07,50,1000.68
2012,01,22,07,51,1000.71
2012,01,22,07,52,1000.71
2012,01,22,07,53,1000.68
2012,01,22,07,54,1000.68
2012,01,22,07,55,1000.68
2012,01,22,07,56,1000.61
2012,01,22,07,57,1000.58
2012,01,22,07,58,1000.54
2012,01,22,07,59,1000.48
2012,01,22,08,00,1000.48
2012,01,22,08,01,1000.44
2012,01,22,08,02,1000.44
2012,01,22,08,03,1000.41
2012,01,22,08,04,1000.41
2012,01,22,08,05,1000.34
2012,01,22,08,06,1000.34
2012,01,22,08,07,1000.31
2012,01,22,08,08,1000.24
2012,01,22,08,09,1000.31
2012,01,22,08,10,1000.31
2012,01,22,08,11,1000.31
2012,01,22,08,12,1000.24
2012,01,22,08,13,1000.20
2012,01,22,08,14,1000.31
2012,01,22,08,15,1000.20
2012,01,22,08,16,1000.10
2012,01,22,08,17,1000.10
2012,01,22,08,18,1000.10
2012,01,22,08,19,1000.10
2012,01,22,08,20,1000.07
2012,01,22,08,21,1000.20
2012,01,22,08,22,1000.10
2012,01,22,08,23,1000.07
2012,01,22,08,24,1000.00
2012,01,22,08,25,1000.27
2012,01,22,08,26,999.90
2012,01,22,08,27,999.97
2012,01,22,08,28,999.74
2012,01,22,08,29,999.80
2012,01,22,08,30,999.80
2012,01,22,08,31,999.80
2012,01,22,08,32,999.80
2012,01,22,08,33,999.76
2012,01,22,08,34,999.76
2012,01,22,08,35,999.80
2012,01,22,08,36,999.70
2012,01,22,08,37,999.70
2012,01,22,08,38,999.66
2012,01,22,08,39,999.66
2012,01,22,08,40,999.66
2012,01,22,08,41,999.59
2012,01,22,08,42,999.59
2012,01,22,08,43,999.56
2012,01,22,08,44,999.56
2012,01,22,08,45,999.49
2012,01,22,08,46,999.46
2012,01,22,08,47,999.43
2012,01,22,08,48,999.43
2012,01,22,08,49,999.46
2012,01,22,08,50,999.36
2012,01,22,08,51,999.48
2012,01,22,08,52,999.30
2012,01,22,08,53,999.32
2012,01,22,08,54,999.39
2012,01,22,08,55,999.19
2012,01,22,08,56,999.29
2012,01,22,08,57,999.19
2012,01,22,08,58,999.26
2012,01,22,08,59,999.36
2012,01,22,09,00,999.26
2012,01,22,09,01,999.22
2012,01,22,09,02,999.19
2012,01,22,09,03,999.19
2012,01,22,09,04,999.22
2012,01,22,09,05,999.12
2012,01,22,09,06,999.09
2012,01,22,09,07,999.02
2012,01,22,09,08,998.92
2012,01,22,09,09,998.85
2012,01,22,09,10,998.78
2012,01,22,09,11,998.88
2012,01,22,09,12,998.78
2012,01,22,09,13,998.68
2012,01,22,09,14,998.78
2012,01,22,09,15,998.75
2012,01,22,09,16,998.65
2012,01,22,09,17,998.71
2012,01,22,09,18,998.61
2012,01,22,09,19,998.68
2012,01,22,09,20,998.54
2012,01,22,09,21,998.51
2012,01,22,09,22,998.71
2012,01,22,09,23,998.65
2012,01,22,09,24,998.61
2012,01,22,09,25,998.61
2012,01,22,09,26,998.58
2012,01,22,09,27,998.54
2012,01,22,09,28,998.51
2012,01,22,09,29,998.48
2012,01,22,09,30,998.48
2012,01,22,09,31,998.44
2012,01,22,09,32,998.44
2012,01,22,09,33,998.44
2012,01,22,09,34,998.41
2012,01,22,09,35,998.44
2012,01,22,09,36,998.41
2012,01,22,09,37,998.41
2012,01,22,09,38,998.41
2012,01,22,09,39,998.44
2012,01,22,09,40,998.38
2012,01,22,09,41,998.32
2012,01,22,09,42,998.44
2012,01,22,09,43,998.34
2012,01,22,09,44,998.24
2012,01,22,09,45,998.31
2012,01,22,09,46,998.38
2012,01,22,09,47,998.38
2012,01,22,09,48,998.27
2012,01,22,09,49,998.31
2012,01,22,09,50,998.27
2012,01,22,09,51,998.28
2012,01,22,09,52,998.38
2012,01,22,09,53,998.31
2012,01,22,09,54,998.38
2012,01,22,09,55,998.24
2012,01,22,09,56,998.37
2012,01,22,09,57,998.05
2012,01,22,09,58,998.17
2012,01,22,09,59,998.07
2012,01,22,10,00,998.07
2012,01,22,10,01,998.00
2012,01,22,10,02,998.04
2012,01,22,10,03,998.00
2012,01,22,10,04,998.04
2012,01,22,10,05,997.86
2012,01,22,10,06,997.73
2012,01,22,10,07,997.70
2012,01,22,10,08,997.53
2012,01,22,10,09,997.46
2012,01,22,10,10,997.56
2012,01,22,10,11,997.56
2012,01,22,10,12,997.50
2012,01,22,10,13,997.60
2012,01,22,10,14,997.56
2012,01,22,10,15,997.53
2012,01,22,10,16,997.50
2012,01,22,10,17,997.52
2012,01,22,10,18,997.33
2012,01,22,10,19,997.39
2012,01,22,10,20,997.39
2012,01,22,10,21,997.43
2012,01,22,10,22,997.35
2012,01,22,10,23,997.19
2012,01,22,10,24,997.22
2012,01,22,10,25,997.16
2012,01,22,10,26,997.12
2012,01,22,10,27,997.36
2012,01,22,10,28,997.16
2012,01,22,10,29,996.99
2012,01,22,10,30,996.89
2012,01,22,10,31,996.78
2012,01,22,10,32,996.72
2012,01,22,10,33,996.72
2012,01,22,10,34,996.75
2012,01,22,10,35,996.65
2012,01,22,10,36,996.61
2012,01,22,10,37,996.65
2012,01,22,10,38,996.58
2012,01,22,10,39,996.51
2012,01,22,10,40,996.51
2012,01,22,10,41,996.45
2012,01,22,10,42,996.38
2012,01,22,10,43,996.41
2012,01,22,10,44,996.41
2012,01,22,10,45,996.41
2012,01,22,10,46,996.38
2012,01,22,10,47,996.41
2012,01,22,10,48,996.31
2012,01,22,10,49,996.28
2012,01,22,10,50,996.31
2012,01,22,10,51,996.30
2012,01,22,10,52,996.21
2012,01,22,10,53,996.31
2012,01,22,10,54,996.17
2012,01,22,10,55,996.21
2012,01,22,10,56,996.21
2012,01,22,10,57,996.14
2012,01,22,10,58,996.21
2012,01,22,10,59,996.14
2012,01,22,11,00,996.11
2012,01,22,11,01,996.14
2012,01,22,11,02,996.11
2012,01,22,11,03,996.00
2012,01,22,11,04,995.84
2012,01,22,11,05,995.90
2012,01,22,11,06,995.90
2012,01,22,11,07,995.84
2012,01,22,11,08,995.73
2012,01,22,11,09,995.67
2012,01,22,11,10,995.56
2012,01,22,11,11,995.60
2012,01,22,11,12,995.56
2012,01,22,11,13,995.46
2012,01,22,11,14,995.40
2012,01,22,11,15,995.43
2012,01,22,11,16,995.36
2012,01,22,11,17,995.36
2012,01,22,11,18,995.36
2012,01,22,11,19,995.36
2012,01,22,11,20,995.33
2012,01,22,11,21,995.29
2012,01,22,11,22,995.12
2012,01,22,11,23,995.26
2012,01,22,11,24,995.19
2012,01,22,11,25,995.19
2012,01,22,11,26,995.09
2012,01,22,11,27,995.02
2012,01,22,11,28,995.02
2012,01,22,11,29,994.96
2012,01,22,11,30,994.99
2012,01,22,11,31,994.99
2012,01,22,11,32,994.92
2012,01,22,11,33,994.91
2012,01,22,11,34,994.79
2012,01,22,11,35,994.72
2012,01,22,11,36,994.72
2012,01,22,11,37,994.67
2012,01,22,11,38,994.55
2012,01,22,11,39,994.79
2012,01,22,11,40,994.67
2012,01,22,11,41,994.58
2012,01,22,11,42,994.52
2012,01,22,11,43,994.52
2012,01,22,11,44,994.46
2012,01,22,11,45,994.55
2012,01,22,11,46,994.52
2012,01,22,11,47,994.52
2012,01,22,11,48,994.41
2012,01,22,11,49,994.35
2012,01,22,11,50,994.35
2012,01,22,11,51,994.45
2012,01,22,11,52,994.30
2012,01,22,11,53,994.21
2012,01,22,11,54,994.24
2012,01,22,11,55,994.20
2012,01,22,11,56,994.07
2012,01,22,11,57,994.07
2012,01,22,11,58,994.17
2012,01,22,11,59,994.04
2012,01,22,12,00,994.21
2012,01,22,12,01,994.04
2012,01,22,12,02,994.04
2012,01,22,12,03,994.00
2012,01,22,12,04,993.84
2012,01,22,12,05,993.94
2012,01,22,12,06,993.87
2012,01,22,12,07,993.77
2012,01,22,12,08,993.84
2012,01,22,12,09,993.86
2012,01,22,12,10,993.70
2012,01,22,12,11,993.67
2012,01,22,12,12,993.74
2012,01,22,12,13,993.63
2012,01,22,12,14,993.69
2012,01,22,12,15,993.53
2012,01,22,12,16,993.47
2012,01,22,12,17,993.47
2012,01,22,12,18,993.60
2012,01,22,12,19,993.57
2012,01,22,12,20,993.43
2012,01,22,12,21,993.53
2012,01,22,12,22,993.53
2012,01,22,12,23,993.33
2012,01,22,12,24,993.33
2012,01,22,12,25,993.40
2012,01,22,12,26,993.19
2012,01,22,12,27,993.23
2012,01,22,12,28,993.23
2012,01,22,12,29,993.13
2012,01,22,12,30,993.29
2012,01,22,12,31,993.13
2012,01,22,12,32,993.09
2012,01,22,12,33,993.06
2012,01,22,12,34,993.06
2012,01,22,12,35,993.03
2012,01,22,12,36,993.09
2012,01,22,12,37,993.03
2012,01,22,12,38,993.06
2012,01,22,12,39,992.96
2012,01,22,12,40,993.08
2012,01,22,12,41,992.92
2012,01,22,12,42,992.99
2012,01,22,12,43,992.98
2012,01,22,12,44,992.79
2012,01,22,12,45,992.82
2012,01,22,12,46,992.72
2012,01,22,12,47,992.79
2012,01,22,12,48,992.79
2012,01,22,12,49,992.65
2012,01,22,12,50,992.68
2012,01,22,12,51,992.55
2012,01,22,12,52,992.58
2012,01,22,12,53,992.52
2012,01,22,12,54,992.45
2012,01,22,12,55,992.52
2012,01,22,12,56,992.48
2012,01,22,12,57,992.55
2012,01,22,12,58,992.45
2012,01,22,12,59,992.61
2012,01,22,13,00,992.45
2012,01,22,13,01,992.42
2012,01,22,13,02,992.42
2012,01,22,13,03,992.42
2012,01,22,13,04,992.28
2012,01,22,13,05,992.31
2012,01,22,13,06,992.31
2012,01,22,13,07,992.21
2012,01,22,13,08,992.14
2012,01,22,13,09,992.14
2012,01,22,13,10,992.11
2012,01,22,13,11,992.08
2012,01,22,13,12,992.04
2012,01,22,13,13,992.04
2012,01,22,13,14,992.11
2012,01,22,13,15,991.91
2012,01,22,13,16,991.91
2012,01,22,13,17,991.81
2012,01,22,13,18,991.87
2012,01,22,13,19,991.81
2012,01,22,13,20,991.81
2012,01,22,13,21,991.87
2012,01,22,13,22,991.91
2012,01,22,13,23,991.77
2012,01,22,13,24,991.77
2012,01,22,13,25,991.77
2012,01,22,13,26,991.74
2012,01,22,13,27,991.74
2012,01,22,13,28,991.64
2012,01,22,13,29,991.74
2012,01,22,13,30,991.67
2012,01,22,13,31,991.77
2012,01,22,13,32,991.77
2012,01,22,13,33,991.80
2012,01,22,13,34,991.67
2012,01,22,13,35,991.60
2012,01,22,13,36,991.67
2012,01,22,13,37,991.57
2012,01,22,13,38,991.64
2012,01,22,13,39,991.60
2012,01,22,13,40,991.57
2012,01,22,13,41,991.60
2012,01,22,13,42,991.53
2012,01,22,13,43,991.64
2012,01,22,13,44,991.64
2012,01,22,13,45,991.57
2012,01,22,13,46,991.60
2012,01,22,13,47,991.60
2012,01,22,13,48,991.64
2012,01,22,13,49,991.67
2012,01,22,13,50,991.64
2012,01,22,13,51,991.57
2012,01,22,13,52,991.64
2012,01,22,13,53,991.70
2012,01,22,13,54,991.74
2012,01,22,13,55,991.74
2012,01,22,13,56,991.70
2012,01,22,13,57,991.50
2012,01,22,13,58,991.60
2012,01,22,13,59,991.64
2012,01,22,14,00,991.70
2012,01,22,14,01,991.77
2012,01,22,14,02,991.74
2012,01,22,14,03,991.70
2012,01,22,14,04,991.74
2012,01,22,14,05,991.94
2012,01,22,14,06,991.87
2012,01,22,14,07,991.77
2012,01,22,14,08,991.77
2012,01,22,14,09,991.74
2012,01,22,14,10,991.74
2012,01,22,14,11,991.87
2012,01,22,14,12,991.81
2012,01,22,14,13,991.77
2012,01,22,14,14,991.74
2012,01,22,14,15,991.91
2012,01,22,14,16,991.91
2012,01,22,14,17,991.94
2012,01,22,14,18,991.98
2012,01,22,14,19,991.94
2012,01,22,14,20,991.94
2012,01,22,14,21,991.94
2012,01,22,14,22,992.04
2012,01,22,14,23,992.10
2012,01,22,14,24,992.01
2012,01,22,14,25,992.08
2012,01,22,14,26,992.08
2012,01,22,14,27,992.08
2012,01,22,14,28,991.98
2012,01,22,14,29,991.98
2012,01,22,14,30,992.05
2012,01,22,14,31,992.25
2012,01,22,14,32,992.25
2012,01,22,14,33,992.21
2012,01,22,14,34,992.14
2012,01,22,14,35,992.18
2012,01,22,14,36,992.14
2012,01,22,14,37,992.14
2012,01,22,14,38,992.18
2012,01,22,14,39,992.18
2012,01,22,14,40,992.14
2012,01,22,14,41,992.14
2012,01,22,14,42,992.18
2012,01,22,14,43,992.14
2012,01,22,14,44,992.14
2012,01,22,14,45,992.14
2012,01,22,14,46,992.14
2012,01,22,14,47,992.18
2012,01,22,14,48,992.14
2012,01,22,14,49,992.14
2012,01,22,14,50,992.18
2012,01,22,14,51,992.18
2012,01,22,14,52,992.28
2012,01,22,14,53,992.35
2012,01,22,14,54,992.28
2012,01,22,14,55,992.31
2012,01,22,14,56,992.31
2012,01,22,14,57,992.38
2012,01,22,14,58,992.42
2012,01,22,14,59,992.39
2012,01,22,15,00,992.48
2012,01,22,15,01,992.42
2012,01,22,15,02,992.48
2012,01,22,15,03,992.51
2012,01,22,15,04,992.38
2012,01,22,15,05,992.52
2012,01,22,15,06,992.52
2012,01,22,15,07,992.62
2012,01,22,15,08,992.52
2012,01,22,15,09,992.62
2012,01,22,15,10,992.65
2012,01,22,15,11,992.72
2012,01,22,15,12,992.69
2012,01,22,15,13,992.75
2012,01,22,15,14,992.69
2012,01,22,15,15,992.65
2012,01,22,15,16,992.72
2012,01,22,15,17,992.79
2012,01,22,15,18,992.79
2012,01,22,15,19,992.86
2012,01,22,15,20,992.86
2012,01,22,15,21,992.89
2012,01,22,15,22,992.92
2012,01,22,15,23,992.96
2012,01,22,15,24,992.92
2012,01,22,15,25,992.92
2012,01,22,15,26,992.99
2012,01,22,15,27,993.03
2012,01,22,15,28,993.03
2012,01,22,15,29,992.99
2012,01,22,15,30,993.06
2012,01,22,15,31,993.16
2012,01,22,15,32,993.19
2012,01,22,15,33,993.26
2012,01,22,15,34,993.19
2012,01,22,15,35,993.13
2012,01,22,15,36,993.06
2012,01,22,15,37,993.13
2012,01,22,15,38,993.13
2012,01,22,15,39,993.13
2012,01,22,15,40,993.13
2012,01,22,15,41,993.26
2012,01,22,15,42,993.30
2012,01,22,15,43,993.40
2012,01,22,15,44,993.47
2012,01,22,15,45,993.50
2012,01,22,15,46,993.53
2012,01,22,15,47,993.47
2012,01,22,15,48,993.43
2012,01,22,15,49,993.53
2012,01,22,15,50,993.43
2012,01,22,15,51,993.36
2012,01,22,15,52,993.30
2012,01,22,15,53,993.30
2012,01,22,15,54,993.26
2012,01,22,15,55,993.30
2012,01,22,15,56,993.43
2012,01,22,15,57,993.43
2012,01,22,15,58,993.53
2012,01,22,15,59,993.57
2012,01,22,16,00,993.57
2012,01,22,16,01,993.63
2012,01,22,16,02,993.70
2012,01,22,16,03,993.70
2012,01,22,16,04,993.60
2012,01,22,16,05,993.53
2012,01,22,16,06,993.67
2012,01,22,16,07,993.70
2012,01,22,16,08,993.64
2012,01,22,16,09,993.74
2012,01,22,16,10,993.80
2012,01,22,16,11,993.77
2012,01,22,16,12,993.80
2012,01,22,16,13,993.91
2012,01,22,16,14,994.07
2012,01,22,16,15,994.04